Wetbulb
72.44 72.51 72.77 73.33 73.57 73.64 72.93 73.43 73.85 73.71 73.75 73.34 73.09 72.12 71.96 71.70 70.95 71.43 71.60 75.09 76.68 76.96 76.37 75.68 75.20 74.67 74.26 74.72 75.25 75.58 75.39 74.93 74.46 74.23 74.20 74.43 75.02 74.90 75.10 74.98 74.85 74.41 74.30
72.75 72.51 72.23 72.14 72.98 73.00 72.70 72.61 73.15 72.83 72.61 72.56 72.09 72.00 72.07 71.79 71.52 71.51 71.32 73.06 76.82 76.68 76.30 76.52 76.66 75.87 74.89 74.60 74.86 74.85 75.78 75.60 76.33 75.91 75.66 75.13 74.81 75.08 74.33 73.89 74.52 75.25 75.28
72.59 72.29 71.47 71.91 72.83 73.14 72.80 72.00 71.70 72.25 71.58 71.91 71.72 72.37 72.12 71.66 71.14 72.52 71.72 71.73 73.96 77.11 76.58 76.93 76.71 77.74 76.97 75.70 75.41 75.28 75.75 76.13 76.48 75.98 75.91 75.72 75.17 75.07 75.12 74.58 74.17 75.56 75.60
72.61 71.80 70.81 71.54 72.81 73.14 72.69 71.90 71.13 70.52 70.75 70.85 70.80 71.51 71.45 70.44 70.84 71.69 72.93 72.19 72.35 73.69 76.10 76.70 76.38 76.46 76.93 76.63 76.13 76.13 75.60 75.53 76.02 75.97 75.82 75.80 75.59 75.64 75.53 75.48 75.14 74.78 74.98
73.25 72.52 71.43 70.76 72.13 72.64 72.21 72.23 71.61 71.10 70.21 70.40 70.61 71.01 71.19 70.66 70.00 70.36 72.78 72.87 72.93 73.23 73.73 74.67 76.13 76.05 76.79 76.59 76.70 76.94 76.67 76.16 75.53 75.52 75.72 75.72 75.85 75.51 75.13 75.47 75.52 75.38 74.71
73.20 72.85 72.63 72.18 72.18 71.36 71.78 71.68 71.49 71.33 71.27 70.69 70.28 70.48 70.72 70.69 70.86 70.40 70.19 71.69 73.28 73.38 73.63 74.33 74.62 75.20 76.53 77.04 76.84 76.62 76.58 76.53 76.28 76.13 75.85 75.65 75.75 75.51 75.25 75.02 74.87 75.19 74.94
72.80 73.07 72.98 72.69 72.32 71.90 71.71 71.68 71.55 70.67 70.50 70.56 68.75 68.39 68.85 69.83 69.52 69.37 70.21 70.03 70.94 73.42 73.57 73.65 74.20 74.51 74.84 76.16 76.06 76.28 76.37 76.75 76.41 75.90 75.62 75.53 75.12 74.82 74.93 75.07 74.66 74.39 74.56
73.17 72.58 72.37 71.90 72.30 71.61 71.55 70.75 70.97 69.82 69.83 69.78 68.37 66.05 64.32 66.54 67.52 68.82 69.25 69.24 69.59 70.53 71.67 73.27 74.05 74.31 74.69 75.06 75.68 76.05 76.53 76.71 76.60 76.54 76.01 75.38 74.88 74.65 74.61 74.56 74.31 74.21 74.19
72.86 72.64 72.99 72.17 72.37 71.89 71.13 71.07 70.60 70.04 68.49 68.45 69.48 67.67 63.32 62.47 64.40 67.38 68.17 68.61 69.58 68.90 69.71 70.70 72.93 73.97 74.58 74.72 74.94 75.37 75.83 75.67 76.76 77.24 76.72 75.82 74.90 74.31 74.53 74.60 74.35 73.76 73.44
73.06 73.31 72.73 72.62 72.07 71.96 71.33 71.24 71.15 70.61 69.75 68.31 68.20 68.87 67.68 66.78 65.03 63.74 66.62 68.02 69.02 68.48 69.28 69.52 70.20 72.09 73.72 74.05 74.39 74.70 73.90 73.30 75.04 76.51 77.04 77.09 75.70 74.93 74.69 74.61 74.44 74.40 73.75
72.20 73.43 72.91 72.44 71.97 71.66 71.70 71.54 71.22 70.98 70.54 69.62 68.65 67.70 68.51 67.45 65.99 65.14 63.91 65.60 67.50 69.63 70.71 70.49 70.54 70.70 72.34 73.31 74.18 74.00 73.69 73.63 73.38 74.25 75.17 76.18 76.23 75.93 75.86 75.15 75.03 75.08 74.73
71.41 72.55 73.08 72.72 72.64 72.16 71.65 71.40 71.40 70.94 70.66 70.30 69.88 69.03 68.01 67.17 65.83 65.58 64.95 66.31 65.55 68.47 69.06 70.26 70.40 70.49 70.64 71.70 73.72 74.06 73.99 73.54 72.93 72.81 72.99 73.89 75.00 75.81 76.30 76.21 76.05 75.98 75.53
70.25 70.86 72.42 72.50 72.37 72.35 72.01 71.68 71.23 70.95 70.60 70.13 69.69 69.07 68.86 68.86 68.84 68.33 67.39 66.96 65.62 67.74 68.25 69.73 71.31 71.87 71.04 70.81 71.29 72.59 73.93 73.51 72.42 71.15 71.15 71.66 72.75 73.73 73.61 73.81 74.43 75.03 75.45
71.02 71.84 71.46 72.26 72.36 72.58 72.32 71.79 71.08 71.20 71.17 70.67 70.56 70.12 69.61 69.37 69.16 68.05 67.73 66.76 64.94 65.92 67.35 69.37 70.50 71.43 72.80 72.64 73.06 72.23 73.53 71.68 71.03 70.30 69.50 69.18 69.00 69.79 70.73 71.87 72.51 72.49 72.35
70.53 71.37 71.59 71.47 71.78 72.35 72.58 72.37 70.91 70.39 70.84 70.53 70.56 70.57 69.59 70.39 70.01 69.09 68.97 68.21 66.76 64.35 65.20 67.85 69.07 71.53 71.79 71.86 72.25 72.60 73.43 71.36 70.30 69.39 68.46 67.52 67.61 68.20 69.07 69.60 69.43 68.93 68.96
67.57 69.37 70.49 71.37 71.44 71.60 72.00 72.15 71.67 71.36 70.55 70.25 70.45 70.02 70.22 69.96 70.97 69.84 69.67 69.75 69.63 67.63 65.14 68.82 68.13 70.15 71.85 72.26 73.42 73.70 73.25 70.36 69.73 68.93 67.90 66.67 66.85 67.23 67.48 67.67 67.81 67.70 67.84
65.80 66.14 67.57 69.57 70.70 71.19 71.41 70.79 71.18 71.37 70.31 70.01 69.59 69.55 68.67 69.64 69.51 69.92 69.35 69.51 69.03 68.78 66.32 68.35 70.15 71.31 70.83 71.83 72.57 73.22 73.31 73.50 73.30 68.38 67.75 66.90 66.12 66.14 66.38 66.54 66.67 66.85 67.05
65.04 65.71 66.20 67.37 69.33 70.29 70.85 70.57 70.26 70.45 70.54 69.28 67.75 63.47 62.57 65.51 65.34 68.87 69.78 69.41 69.19 69.63 68.42 67.23 69.79 69.45 70.24 71.69 72.51 73.01 72.39 72.58 73.26 70.48 67.68 66.85 65.83 65.20 64.76 64.48 64.36 64.35 63.98
63.77 64.49 65.02 65.64 67.10 69.24 70.05 70.32 70.19 69.75 67.59 67.47 65.27 64.94 63.44 62.80 62.38 64.67 69.19 69.64 69.82 70.09 69.68 68.57 68.05 71.09 70.66 71.20 71.24 71.54 71.91 73.04 72.66 71.05 68.42 66.81 65.94 65.20 64.08 63.13 62.62 61.31 60.34
62.78 62.75 63.06 63.93 65.87 67.36 69.08 69.11 68.64 68.73 67.52 67.56 67.13 65.91 64.65 63.81 63.35 63.84 65.55 69.36 69.99 69.30 69.01 67.75 68.22 69.33 69.99 70.47 70.42 69.93 70.02 71.13 71.77 72.35 71.03 69.19 68.15 67.19 65.58 63.93 63.25 62.70 59.87
62.16 62.33 62.29 62.23 63.79 66.01 66.98 68.21 67.74 66.81 66.21 66.16 66.42 65.27 64.31 63.97 64.82 65.42 67.12 68.88 69.57 69.28 68.45 67.46 66.58 68.06 68.27 67.93 68.42 69.97 69.48 71.29 71.58 71.71 71.65 72.04 71.88 71.90 71.25 66.16 67.89 65.64 62.06
62.26 62.40 61.90 61.87 61.51 62.49 62.94 63.62 66.56 66.88 65.34 64.94 64.61 65.69 66.40 66.48 65.82 64.25 65.78 66.63 69.89 69.54 67.90 67.07 66.53 66.82 68.00 69.08 70.41 69.85 69.58 68.40 67.53 71.21 70.82 70.74 71.50 71.09 71.98 72.08 67.72 64.59 61.66
60.58 60.52 61.73 62.01 61.58 63.41 62.08 61.54 63.87 67.05 66.70 65.38 64.50 63.95 64.32 65.16 65.05 65.45 63.74 63.73 64.27 64.86 67.10 70.03 67.81 68.62 68.83 70.63 70.88 69.03 69.21 69.16 69.56 70.57 70.64 69.75 70.57 70.39 72.19 71.66 64.01 62.32 60.95
59.79 60.73 61.83 62.52 63.04 65.11 61.87 59.94 61.94 66.00 66.00 65.80 65.00 64.32 64.30 65.11 64.94 65.47 66.05 65.27 65.83 67.75 67.70 69.08 70.83 71.17 71.91 72.45 71.65 71.75 71.04 70.23 69.67 69.50 71.00 67.74 70.05 69.49 70.87 71.25 64.26 62.31 60.47
58.59 62.05 62.31 63.32 64.27 64.66 59.63 58.70 60.59 64.66 64.86 64.62 64.23 64.73 64.21 64.65 62.42 60.80 67.05 65.71 66.54 65.73 63.75 62.34 64.02 64.70 63.55 62.83 67.77 69.96 68.52 67.86 67.50 68.03 69.88 69.62 68.82 68.71 67.43 68.16 67.83 61.73 59.46
57.88 60.86 62.50 62.51 61.28 63.30 57.44 55.10 58.26 65.37 64.42 64.31 63.82 64.10 61.33 64.15 58.89 57.39 66.27 65.98 62.97 64.78 65.58 66.65 66.21 64.01 63.01 65.62 61.02 70.20 70.97 68.22 67.97 66.56 68.79 68.32 68.04 69.14 66.93 69.01 68.99 69.54 67.30
MSLP
1020.02 1020.18 1020.26 1020.30 1020.25 1020.26 1020.43 1020.50 1020.59 1020.58 1020.74 1020.78 1020.65 1020.52 1020.46 1020.39 1020.27 1020.23 1020.27 1020.23 1020.35 1020.49 1020.68 1020.80 1021.00 1021.27 1021.37 1021.48 1021.61 1021.75 1021.92 1022.00 1021.96 1022.05 1022.20 1022.28 1022.36 1022.40 1022.40 1022.43 1022.54 1022.58 1022.65
1019.82 1020.07 1020.28 1020.34 1020.15 1020.05 1020.18 1020.35 1020.39 1020.43 1020.49 1020.57 1020.42 1020.27 1020.25 1020.11 1019.98 1019.99 1020.11 1020.10 1020.19 1020.39 1020.55 1020.63 1020.66 1020.89 1021.12 1021.24 1021.36 1021.49 1021.52 1021.55 1021.58 1021.75 1021.86 1021.94 1022.04 1022.09 1022.20 1022.22 1022.17 1022.16 1022.23
1019.56 1019.73 1020.01 1019.92 1019.71 1019.80 1019.76 1020.10 1020.31 1020.30 1020.42 1020.37 1020.34 1020.13 1020.05 1019.93 1019.68 1019.66 1019.82 1019.96 1019.94 1020.04 1020.10 1020.16 1020.23 1020.49 1020.75 1020.87 1021.01 1021.19 1021.27 1021.29 1021.23 1021.29 1021.45 1021.58 1021.80 1021.86 1021.94 1022.00 1021.95 1021.88 1021.88
1019.22 1019.41 1019.52 1019.39 1019.38 1019.59 1019.72 1019.87 1020.01 1020.28 1020.46 1020.45 1020.22 1019.93 1019.80 1019.78 1019.70 1019.50 1019.57 1019.58 1019.69 1019.72 1019.81 1019.83 1019.87 1019.98 1020.33 1020.46 1020.60 1020.74 1020.90 1020.95 1020.94 1020.97 1021.13 1021.26 1021.34 1021.41 1021.46 1021.57 1021.65 1021.65 1021.63
1018.76 1018.97 1018.96 1018.89 1019.02 1019.18 1019.39 1019.63 1019.85 1019.95 1020.21 1020.23 1020.15 1019.92 1019.79 1019.66 1019.52 1019.34 1019.25 1019.19 1019.25 1019.33 1019.43 1019.55 1019.64 1019.71 1019.78 1019.96 1020.17 1020.25 1020.39 1020.45 1020.49 1020.58 1020.64 1020.72 1020.73 1020.77 1020.85 1020.89 1020.97 1021.05 1021.06
1018.23 1018.40 1018.49 1018.48 1018.67 1018.84 1018.98 1019.17 1019.41 1019.60 1019.82 1019.86 1019.82 1019.53 1019.51 1019.48 1019.14 1019.16 1018.99 1018.77 1018.82 1018.90 1018.96 1019.10 1019.25 1019.24 1019.22 1019.27 1019.39 1019.51 1019.61 1019.75 1019.90 1019.95 1020.01 1020.07 1020.10 1020.15 1020.21 1020.31 1020.44 1020.51 1020.56
1017.52 1017.65 1017.80 1017.96 1018.12 1018.36 1018.48 1018.67 1018.97 1019.26 1019.43 1019.68 1019.85 1019.43 1019.01 1018.86 1018.88 1018.79 1018.54 1018.42 1018.44 1018.42 1018.52 1018.57 1018.72 1018.83 1018.73 1018.75 1018.84 1018.85 1018.93 1018.94 1019.06 1019.21 1019.15 1019.16 1019.36 1019.48 1019.54 1019.60 1019.67 1019.84 1019.95
1016.71 1016.84 1016.87 1017.07 1017.28 1017.59 1017.92 1018.24 1018.53 1018.80 1018.94 1019.16 1019.44 1019.76 1019.25 1018.54 1018.16 1017.95 1017.89 1017.95 1017.99 1018.01 1018.00 1017.99 1018.12 1018.23 1018.27 1018.22 1018.16 1018.12 1018.15 1018.30 1018.29 1018.24 1018.45 1018.54 1018.57 1018.62 1018.72 1018.92 1018.96 1018.97 1019.03
1015.97 1015.89 1016.06 1016.19 1016.57 1016.73 1016.98 1017.28 1017.67 1017.93 1018.21 1018.54 1018.66 1018.86 1019.15 1018.66 1018.27 1017.36 1017.26 1017.35 1017.41 1017.55 1017.49 1017.49 1017.49 1017.54 1017.59 1017.61 1017.60 1017.58 1017.53 1017.56 1017.58 1017.59 1017.62 1017.71 1017.75 1017.89 1017.97 1018.09 1018.23 1018.30 1018.30
1015.07 1015.25 1015.27 1015.48 1015.63 1015.94 1016.34 1016.31 1016.54 1016.85 1017.36 1017.82 1018.25 1018.16 1018.04 1018.18 1018.22 1017.89 1017.35 1017.11 1017.15 1017.11 1017.03 1017.06 1017.08 1017.03 1016.91 1016.86 1016.92 1016.97 1016.95 1016.88 1016.86 1016.81 1016.86 1016.90 1016.98 1017.07 1017.18 1017.23 1017.32 1017.44 1017.44
1014.15 1014.21 1014.30 1014.41 1015.02 1015.15 1015.22 1015.45 1015.75 1016.07 1016.32 1016.49 1016.98 1017.33 1017.52 1017.58 1017.83 1017.97 1017.57 1017.21 1016.83 1016.51 1016.34 1016.26 1016.29 1016.33 1016.25 1016.17 1016.14 1016.21 1016.19 1016.30 1016.30 1016.25 1016.27 1016.33 1016.32 1016.36 1016.36 1016.41 1016.54 1016.57 1016.58
1013.59 1013.53 1013.43 1013.68 1013.79 1014.11 1014.24 1014.41 1014.62 1014.84 1015.11 1015.29 1015.50 1016.05 1016.40 1016.52 1016.73 1017.06 1017.17 1016.72 1016.54 1015.84 1015.84 1015.66 1015.65 1015.57 1015.61 1015.61 1015.57 1015.47 1015.52 1015.68 1015.64 1015.63 1015.75 1015.75 1015.78 1015.79 1015.83 1015.80 1015.84 1015.80 1015.76
1013.20 1012.88 1012.76 1012.82 1012.91 1012.83 1013.09 1013.30 1013.57 1013.81 1014.01 1014.25 1014.51 1014.84 1015.14 1015.31 1015.73 1015.84 1016.17 1015.98 1016.14 1015.90 1015.53 1015.10 1014.78 1014.66 1014.73 1014.93 1014.93 1014.96 1014.96 1015.07 1015.19 1015.16 1015.20 1015.25 1015.22 1015.28 1015.30 1015.29 1015.37 1015.33 1015.23
1012.90 1012.50 1012.34 1012.12 1012.00 1012.00 1012.13 1012.31 1012.55 1012.75 1012.84 1013.23 1013.45 1013.74 1014.05 1014.37 1014.58 1014.88 1015.12 1015.73 1015.89 1015.71 1015.18 1014.51 1014.29 1014.13 1014.20 1014.28 1014.10 1014.30 1014.47 1014.58 1014.54 1014.53 1014.55 1014.67 1014.63 1014.70 1014.80 1014.78 1014.92 1014.95 1014.89
1012.62 1012.16 1011.84 1011.54 1011.28 1011.19 1011.13 1011.33 1011.52 1011.64 1012.02 1012.17 1012.44 1012.81 1013.20 1013.10 1013.73 1014.12 1014.24 1014.48 1014.89 1014.86 1014.10 1013.88 1013.95 1013.50 1013.50 1013.73 1013.75 1013.92 1013.92 1013.95 1013.97 1014.02 1014.01 1014.10 1014.12 1014.18 1014.23 1014.41 1014.48 1014.48 1014.54
1012.33 1011.76 1011.30 1010.99 1010.66 1010.36 1010.22 1010.35 1010.43 1010.51 1011.03 1011.30 1011.79 1011.99 1012.37 1012.64 1013.16 1013.35 1013.46 1013.73 1013.95 1014.14 1013.62 1013.05 1013.01 1012.96 1012.89 1012.99 1013.10 1013.29 1013.32 1013.43 1013.44 1013.51 1013.59 1013.45 1013.62 1013.61 1013.74 1013.82 1013.82 1013.96 1014.12
1011.85 1011.34 1010.77 1010.23 1009.86 1009.52 1009.31 1009.27 1009.22 1009.54 1009.91 1010.14 1010.49 1010.70 1009.73 1012.11 1012.65 1012.89 1013.24 1013.37 1013.20 1013.39 1013.14 1012.31 1012.19 1012.43 1012.61 1012.51 1012.58 1012.69 1012.80 1012.79 1012.64 1012.70 1012.86 1012.97 1013.12 1013.11 1013.22 1013.27 1013.43 1013.55 1013.74
1011.13 1010.66 1010.16 1009.57 1008.97 1008.47 1008.23 1008.15 1008.03 1008.19 1008.71 1009.08 1009.38 1009.70 1009.69 1010.11 1011.42 1012.11 1012.36 1012.45 1012.19 1012.13 1012.41 1011.92 1011.49 1011.89 1012.03 1011.93 1012.06 1012.29 1012.18 1012.05 1011.99 1011.83 1011.97 1012.22 1012.48 1012.61 1012.65 1012.75 1012.93 1013.11 1013.12
1010.59 1010.04 1009.51 1008.87 1008.18 1007.45 1007.01 1006.82 1006.80 1007.00 1007.65 1007.82 1008.30 1008.72 1008.37 1008.10 1008.46 1009.46 1011.28 1010.39 1010.86 1010.81 1011.28 1011.38 1010.67 1010.96 1011.31 1011.49 1011.72 1011.92 1011.70 1011.51 1011.23 1011.18 1011.35 1011.46 1011.73 1011.86 1012.17 1012.38 1012.58 1012.56 1012.64
1009.95 1009.19 1008.50 1007.88 1007.24 1006.57 1005.99 1005.89 1005.81 1006.10 1006.77 1006.90 1007.09 1007.44 1007.61 1007.73 1008.12 1008.87 1007.39 1007.98 1008.28 1008.97 1009.98 1010.44 1010.42 1010.22 1010.86 1011.08 1011.13 1011.19 1011.23 1011.11 1010.73 1010.52 1010.64 1010.72 1010.88 1011.13 1011.51 1011.83 1012.04 1012.05 1012.06
1008.95 1008.24 1007.27 1006.54 1006.00 1005.51 1004.96 1004.92 1005.14 1005.18 1005.60 1006.12 1006.27 1006.57 1006.97 1007.36 1007.74 1008.01 1007.69 1007.58 1007.61 1007.53 1008.46 1009.36 1009.48 1009.54 1010.04 1010.55 1010.36 1010.37 1010.64 1010.54 1010.27 1010.17 1010.08 1010.06 1010.36 1010.64 1010.76 1011.13 1011.22 1011.28 1011.40
1007.82 1006.69 1005.74 1004.98 1004.68 1004.21 1003.77 1003.81 1004.11 1004.22 1004.43 1004.89 1005.13 1005.26 1005.73 1006.12 1006.34 1006.70 1006.91 1006.47 1006.86 1006.98 1007.47 1008.11 1008.41 1008.30 1008.84 1009.44 1009.60 1009.89 1010.15 1010.37 1010.14 1009.36 1009.77 1009.42 1009.42 1009.70 1009.87 1010.04 1010.13 1010.46 1010.65
1006.99 1005.38 1004.08 1003.58 1003.18 1003.00 1002.77 1002.75 1003.05 1003.31 1003.52 1003.69 1004.14 1004.66 1005.12 1005.26 1005.74 1005.84 1006.09 1006.49 1006.42 1006.64 1006.68 1007.19 1007.25 1007.37 1007.85 1008.26 1008.80 1009.29 1009.30 1009.58 1009.53 1009.42 1009.47 1009.23 1009.22 1009.10 1009.07 1009.11 1009.58 1009.85 1010.07
1006.20 1003.54 1002.71 1002.46 1002.16 1001.74 1001.58 1001.57 1002.01 1002.53 1002.76 1003.04 1003.38 1003.82 1004.35 1004.63 1005.08 1005.27 1005.57 1006.18 1005.94 1006.05 1006.49 1006.72 1006.47 1006.77 1006.92 1007.27 1007.85 1008.33 1008.50 1008.85 1009.03 1009.12 1009.20 1008.80 1008.76 1008.51 1008.46 1008.44 1008.84 1009.12 1009.23
1005.62 1003.26 1002.55 1001.98 1001.45 1000.88 1000.57 1000.61 1001.18 1001.66 1002.10 1002.39 1002.92 1003.38 1003.71 1004.04 1004.41 1004.84 1004.91 1005.11 1005.23 1005.20 1005.36 1005.67 1006.14 1006.38 1006.45 1006.51 1007.06 1008.00 1008.31 1008.56 1008.55 1008.37 1008.72 1008.56 1008.29 1008.26 1008.36 1008.08 1008.19 1008.66 1008.89
1006.25 1004.65 1002.91 1002.07 1001.51 1000.74 1000.56 1000.53 1000.97 1000.93 1001.24 1001.52 1001.94 1002.50 1002.95 1003.13 1003.58 1003.92 1004.23 1004.22 1004.74 1004.24 1004.84 1005.40 1005.86 1005.83 1005.88 1005.99 1006.53 1006.91 1007.20 1007.47 1007.85 1007.95 1007.99 1008.27 1008.10 1008.12 1008.11 1007.90 1007.98 1008.20 1008.69
Wind_Speed
2 2 3 2 3 2 3 2 3 2 3 4 4 4 5 5 4 3 4 13 15 15 15 15 14 15 15 14 13 12 12 12 12 12 11 11 11 10 10 11 11 11 11
3 3 3 4 4 3 3 3 3 3 3 3 4 4 5 5 4 3 4 4 12 13 14 15 15 16 16 15 15 15 15 15 14 13 13 12 11 10 12 12 12 12 11
5 5 4 6 5 4 5 3 3 2 3 3 5 5 4 5 4 4 4 4 6 14 15 16 17 15 16 17 16 15 15 15 14 13 13 13 12 12 12 13 14 13 12
7 5 5 6 4 3 3 4 3 3 4 4 4 4 4 3 5 5 5 5 5 6 9 16 15 15 17 18 17 16 16 16 15 15 14 14 14 14 13 13 14 14 13
9 7 6 6 4 4 4 5 4 3 4 4 5 5 4 5 5 5 6 7 7 7 6 10 12 13 16 18 18 18 16 17 17 17 16 16 16 15 15 15 15 15 15
9 8 7 7 5 4 5 4 6 4 5 5 6 6 4 5 5 6 6 6 7 9 8 8 7 8 14 17 19 18 18 18 18 19 18 18 17 17 16 15 16 16 16
10 10 8 8 7 8 9 8 5 7 6 4 2 3 5 7 7 7 6 6 7 8 8 8 6 6 7 15 16 17 19 19 18 18 19 18 17 17 17 17 17 16 17
12 11 12 10 10 8 9 8 9 5 5 6 4 1 3 3 4 8 7 7 9 7 8 9 8 9 9 7 10 15 19 19 19 19 19 16 17 17 17 18 18 18 19
12 12 12 10 10 9 9 11 10 11 8 5 9 4 2 5 2 2 6 6 8 6 7 8 8 9 9 9 10 11 17 18 20 20 19 18 17 17 18 18 18 18 17
13 12 11 11 12 9 10 10 9 11 9 8 3 7 3 3 3 3 2 2 5 7 7 6 7 9 10 8 12 14 15 15 18 20 20 20 17 17 18 18 18 19 18
11 12 12 13 12 10 12 12 11 11 10 9 7 3 8 7 4 5 9 4 2 4 4 5 5 7 8 9 8 10 16 16 18 17 17 17 16 16 16 16 18 17 17
7 10 11 11 13 13 13 12 14 14 13 12 10 9 9 4 8 8 8 9 7 6 4 5 6 6 7 7 10 13 13 14 16 14 14 16 16 15 14 12 13 14 17
5 10 11 11 11 13 13 13 13 14 13 13 14 11 11 11 7 4 6 7 6 3 4 6 6 5 6 6 8 12 14 13 13 13 13 12 12 12 12 12 13 12 8
8 9 9 11 12 12 13 13 11 11 14 13 16 13 11 11 9 9 8 5 5 4 3 6 3 5 4 6 8 10 8 11 12 12 13 12 11 11 11 9 9 8 7
9 11 10 11 12 12 13 13 11 14 12 13 14 13 11 10 8 8 9 9 8 9 11 4 4 5 5 5 7 7 8 7 10 11 12 12 12 11 9 10 9 7 6
11 12 12 12 13 13 12 12 12 12 12 9 9 11 10 9 8 7 9 8 8 9 12 6 6 5 4 4 5 6 6 8 10 11 13 13 12 13 12 10 8 8 8
10 11 13 13 14 14 13 12 13 12 14 14 13 10 5 6 7 6 7 9 9 9 12 8 8 6 6 7 7 6 7 7 6 12 13 13 14 12 10 10 10 7 8
11 12 13 14 15 15 15 14 14 13 15 13 12 10 11 7 9 12 11 14 12 11 10 12 7 6 8 7 7 7 6 6 7 7 10 11 13 12 11 9 8 10 9
13 13 13 14 15 16 15 15 14 11 14 15 16 16 18 17 16 14 15 15 12 10 11 8 9 4 7 4 5 6 6 7 6 8 9 11 13 12 10 9 11 10 11
14 14 15 16 16 16 16 15 14 13 14 16 16 16 15 18 22 23 20 22 15 12 11 10 9 7 5 4 5 5 7 5 6 6 8 9 9 11 11 10 13 12 11
14 17 17 17 17 15 13 14 13 14 14 15 16 14 14 17 18 11 7 10 12 11 9 9 10 7 7 5 6 4 7 6 4 6 5 6 7 7 7 9 10 12 12
16 18 19 16 14 13 19 18 17 14 14 14 14 13 12 15 12 11 14 17 16 13 12 9 8 10 11 7 6 6 5 4 5 4 6 7 7 8 8 8 11 11 13
19 21 19 14 14 15 19 18 22 15 14 14 14 11 10 9 11 10 11 12 11 14 13 11 11 11 9 9 8 8 8 6 6 3 5 4 4 7 7 6 9 12 13
19 21 11 11 12 11 17 17 21 17 12 11 11 10 10 10 11 12 12 14 12 10 13 10 11 11 10 10 10 8 7 6 4 4 5 5 4 5 4 5 9 12 12
20 18 8 9 10 12 13 17 16 11 11 11 10 10 11 11 12 16 12 11 10 9 8 13 14 12 11 11 9 6 5 5 5 4 7 3 4 3 2 2 3 9 8
16 16 14 9 10 8 6 6 11 7 10 8 8 10 15 12 14 14 11 8 8 8 7 8 8 9 9 8 12 11 7 8 5 3 6 7 5 4 2 1 1 2 3
Wind_Direction
208 214 243 254 253 230 253 248 247 241 238 242 244 248 266 265 279 254 241 232 217 212 220 224 226 234 234 234 233 241 230 241 245 244 246 250 256 266 271 265 249 246 254
208 206 226 243 235 214 233 238 240 236 247 243 260 260 268 272 262 226 229 231 221 215 223 230 230 233 237 237 235 237 237 237 243 242 242 247 252 256 258 264 269 247 246
213 208 210 230 234 228 207 232 242 256 259 257 255 270 280 278 280 245 229 225 234 226 224 226 230 231 235 239 240 238 239 241 249 242 243 243 248 251 252 256 259 266 248
215 218 227 237 214 215 214 227 237 240 246 244 255 262 273 286 270 248 242 228 223 232 240 239 237 240 232 236 242 242 240 240 244 246 247 247 248 249 247 251 255 256 261
216 215 226 234 210 205 202 210 228 207 245 245 255 255 253 250 256 265 242 228 220 222 227 247 248 246 245 244 243 243 242 239 240 243 243 243 246 246 246 247 247 248 248
215 212 226 233 199 208 227 209 228 218 235 254 267 266 241 246 242 242 246 243 222 224 228 234 238 243 244 246 247 245 238 241 239 240 239 240 241 243 242 244 246 249 249
208 211 220 225 209 216 229 213 216 228 240 225 282 287 270 238 236 238 238 242 237 235 225 229 232 241 247 247 251 246 244 243 241 243 241 239 239 241 242 239 239 242 247
216 210 216 221 210 215 215 201 202 218 233 180 201 192 292 298 242 222 217 224 232 230 233 231 227 229 237 241 243 243 245 249 251 243 243 243 240 239 238 244 243 239 238
229 220 213 219 217 215 219 214 203 208 226 195 201 180 208 241 318 270 222 220 224 221 233 234 230 232 231 233 239 245 249 246 247 249 249 240 236 236 238 239 243 247 248
231 220 218 217 214 209 218 218 214 213 210 219 201 228 216 165 208 309 307 236 216 225 226 230 235 237 233 229 232 238 245 244 248 249 250 246 240 237 237 239 239 242 246
223 223 212 212 217 214 215 215 213 208 206 215 207 178 223 223 211 221 265 274 273 234 226 225 233 238 236 228 227 233 237 244 247 249 252 255 257 259 244 242 246 249 248
226 234 229 219 218 218 216 214 215 213 212 213 212 203 213 189 210 216 237 246 253 270 253 245 236 235 239 233 235 238 239 242 249 248 244 246 253 255 259 265 268 268 266
245 236 230 226 226 222 222 214 213 218 213 213 209 210 216 225 224 200 220 246 242 248 259 239 234 224 234 231 240 241 248 248 249 246 241 239 239 244 255 260 266 275 292
269 259 238 237 229 228 223 220 219 222 220 220 219 216 213 227 213 209 220 204 249 245 245 246 230 227 221 233 237 237 246 248 253 245 233 227 237 244 246 252 252 264 283
278 270 252 250 246 235 226 221 218 221 219 222 220 223 219 224 219 221 216 212 210 252 258 224 238 209 226 231 237 237 237 239 252 244 232 239 238 237 232 234 230 241 251
284 283 274 257 250 244 231 223 225 223 215 212 222 222 214 227 232 219 219 225 220 228 261 245 228 209 215 233 235 218 236 238 240 232 237 240 235 226 218 224 230 231 236
274 276 276 268 256 250 240 224 221 217 210 215 211 201 161 232 237 229 231 232 219 212 237 254 254 218 220 226 243 231 245 249 251 224 225 232 228 219 221 226 225 224 228
281 269 272 269 261 250 241 228 221 207 210 206 188 164 179 173 218 237 233 230 222 212 223 238 242 212 220 215 238 237 240 240 252 236 220 222 226 223 223 223 220 222 218
289 285 274 268 266 256 244 227 220 209 188 194 188 196 206 211 198 208 223 218 214 211 217 229 238 196 228 209 226 247 247 251 245 244 237 222 221 224 224 222 223 218 222
283 281 276 270 261 260 250 236 215 202 191 211 210 214 213 208 215 219 207 209 196 194 209 222 237 227 215 201 204 226 246 235 250 239 245 236 210 219 219 211 220 216 221
281 278 280 269 261 256 254 240 215 203 199 206 215 217 215 219 220 236 246 226 210 192 196 211 228 220 220 207 212 207 235 252 251 232 237 228 219 226 230 220 233 222 220
290 284 277 261 252 252 253 231 212 209 203 209 222 225 213 209 204 206 220 217 209 199 204 203 213 219 225 218 217 218 222 229 261 200 211 237 203 219 230 225 218 220 219
304 292 275 254 245 252 249 228 209 217 214 217 216 210 210 211 197 199 221 239 239 222 211 207 221 217 219 209 211 216 212 211 225 209 199 240 189 218 221 230 219 221 224
317 304 264 254 251 256 246 220 205 216 214 212 210 204 204 201 194 197 199 214 224 221 222 226 223 222 217 210 203 222 209 208 235 233 211 229 184 215 205 223 213 223 222
338 328 286 282 272 266 236 222 207 203 212 211 204 208 210 203 205 201 200 204 214 216 201 219 231 232 205 196 189 181 203 189 234 219 201 245 184 218 216 223 208 228 233
337 344 343 352 336 312 359 280 203 200 205 201 197 205 209 207 198 187 204 190 219 231 206 222 225 236 239 229 198 208 202 207 200 206 205 205 175 183 236 191 189 194 160